Home > Weather > Milan > Past weeks

Flag for Italy Weather for the Past 2 Weeks in Milan, Italy

Now
39 °F

Clear.


Feels Like: 37 °F
Forecast: 34 / 47 °F
Wind: 3 mph from Northeast

Location: Milan / Linate

Current Time: Feb 12, 2016 at 2:25:45 AM

Latest Report: Feb 12, 2016 at 1:20 AM


Visibility: 10 mi

Pressure: 29.74 "Hg

Humidity: 65%

Dew point: 28 °F

Location of MilanLocation

Historic Weather in Milan — Graph

°F

Milan Temperature Yesterday

Maximum temperature yesterday: 52 °F (at 3:20 PM)
Minimum temperature yesterday: 30 °F (at 5:20 AM)
Average temperature yesterday: 41 °F

High & Low Weather Summary for the Past Weeks

 TemperatureHumidityPressure
High59 °F (Jan 29, 3:20 PM)100% (Jan 29, 7:20 AM)30.48 "Hg (Jan 29, 7:20 AM)
Low30 °F (Feb 11, 5:20 AM)18% (Feb 10, 2:20 PM)29.33 "Hg (Feb 10, 12:50 AM)
Average45 °F79%30.09 "Hg
* Reported Jan 28 12:50 AM — Feb 12 12:50 AM, Milan, Weather by CustomWeather, © 2016

Note: Actual official high and low records may vary slightly from our data, if they occured in-between our weather recording intervals... More about our weather records

Advertising

Milan Weather History for the Previous 24 Hours

 ConditionsComfort  
Time TempWeatherWind HumidityBarometerVisibility
12:50 AM
Fri, Feb 12
37 °FClear.5 mph70%29.74 "Hg10 mi
12:20 AM39 °FClear.2 mph65%29.74 "Hg10 mi
11:50 PM
Thu, Feb 11
41 °FClear.5 mph61%29.74 "Hg10 mi
10:20 PM41 °FPassing clouds.3 mph57%29.77 "HgN/A
9:50 PM41 °FClear.5 mph57%29.77 "Hg10 mi
9:20 PM41 °FClear.2 mph57%29.77 "Hg10 mi
8:50 PM41 °FClear.1 mph61%29.77 "Hg10 mi
8:20 PM41 °FClear.No wind57%29.77 "Hg10 mi
7:50 PM41 °FClear.3 mph66%29.77 "Hg10 mi
7:20 PM45 °FPassing clouds.3 mph49%29.77 "HgN/A
6:50 PM43 °FClear.3 mph57%29.77 "Hg10 mi
6:20 PM45 °FClear.2 mph46%29.77 "Hg10 mi
5:50 PM48 °FPassing clouds.3 mph37%29.74 "HgN/A
5:20 PM48 °FSunny.5 mph37%29.74 "Hg10 mi
4:50 PM48 °FPassing clouds.3 mph34%29.74 "HgN/A
4:20 PM50 °FPassing clouds.3 mph35%29.74 "HgN/A
3:50 PM50 °FPassing clouds.3 mph30%29.74 "HgN/A
3:20 PM52 °FSunny.2 mph28%29.74 "Hg10 mi
2:50 PM50 °FPassing clouds.5 mph30%29.74 "HgN/A
2:20 PM50 °FPassing clouds.5 mph32%29.77 "HgN/A
1:50 PM50 °FPassing clouds.5 mph35%29.77 "HgN/A
1:20 PM50 °FPassing clouds.5 mph35%29.77 "HgN/A
12:50 PM50 °FPassing clouds.5 mph37%29.77 "HgN/A
12:20 PM50 °FSunny.5 mph35%29.80 "Hg10 mi
11:50 AM48 °FPassing clouds.5 mph40%29.80 "HgN/A
11:20 AM46 °FPassing clouds.3 mph46%29.80 "HgN/A
10:50 AM45 °FPassing clouds.6 mph46%29.80 "HgN/A
10:20 AM45 °FSunny.2 mph49%29.80 "Hg10 mi
9:50 AM41 °FSunny.2 mph57%29.77 "Hg10 mi
9:20 AM39 °FSunny.2 mph61%29.77 "Hg10 mi
8:50 AM37 °FSunny.1 mph65%29.77 "Hg10 mi
8:20 AM32 °FSunny.3 mph75%29.77 "Hg10 mi
7:50 AM30 °FSunny.1 mph80%29.74 "Hg10 mi
7:20 AM30 °FClear.2 mph80%29.74 "Hg10 mi
6:50 AM30 °FClear.2 mph80%29.71 "Hg10 mi
6:20 AM30 °FClear.2 mph80%29.71 "Hg10 mi
5:50 AM30 °FPassing clouds.5 mph86%29.71 "HgN/A
5:20 AM30 °FClear.No wind86%29.71 "Hg10 mi
4:50 AM32 °FClear.No wind80%29.71 "Hg10 mi
4:20 AM32 °FClear.No wind75%29.68 "Hg10 mi
3:50 AM32 °FClear.2 mph80%29.68 "Hg10 mi
3:20 AM32 °FClear.1 mph75%29.68 "Hg10 mi
2:50 AM32 °FPassing clouds.3 mph75%29.68 "HgN/A
2:20 AM34 °FClear.1 mph70%29.68 "Hg10 mi
Weather by CustomWeather, © 2016

See weather overviewHow to use our weather pages